This is the latest recevied weather packets stored in our database for station/object W7BL. If no packets are shown the sender has not sent any weather packets the latest 10 day(s).
| Time | Temp. | Humidity | Pressure | Rain* | Wind** | Luminosity | Snow |
|---|---|---|---|---|---|---|---|
| 1777404399 | 15.56° C | 43% | - | 0 mm | - | - | - |
| 1777404096 | 15.56° C | 45% | - | 0 mm | - | - | - |
| 1777403792 | 15° C | 44% | - | 0 mm | - | - | - |
| 1777403491 | 15° C | 45% | - | 0 mm | - | - | - |
| 1777403185 | 15° C | 45% | - | 0 mm | - | - | - |
| 1777402881 | 14.44° C | 45% | - | 0 mm | - | - | - |
| 1777402578 | 15° C | 45% | - | 0 mm | - | - | - |
| 1777402277 | 14.44° C | 47% | - | 0 mm | - | - | - |
| 1777401976 | 13.89° C | 45% | - | 0 mm | - | - | - |
| 1777401675 | 14.44° C | 46% | - | 0 mm | - | - | - |
| 1777401373 | 13.89° C | 48% | - | 0 mm | - | - | - |
| 1777401068 | 14.44° C | 46% | - | 0 mm | - | - | - |
| 1777400763 | 13.89° C | 47% | - | 0 mm | - | - | - |
| 1777400461 | 13.33° C | 47% | - | 0 mm | - | - | - |
| 1777400156 | 13.89° C | 48% | - | 0 mm | - | - | - |
| 1777399853 | 13.89° C | 47% | - | 0 mm | - | - | - |
| 1777399550 | 13.89° C | 48% | - | 0 mm | - | - | - |
| 1777399248 | 12.78° C | 49% | - | 0 mm | - | - | - |
| 1777398945 | 13.33° C | 50% | - | 0 mm | - | - | - |
| 1777398642 | 12.78° C | 52% | - | 0 mm | - | - | - |
| 1777398338 | 13.33° C | 49% | - | 0 mm | - | - | - |
| 1777398035 | 12.78° C | 51% | - | 0 mm | - | - | - |
| 1777397732 | 12.78° C | 53% | - | 0 mm | - | - | - |
| 1777397428 | 12.22° C | 54% | - | 0 mm | - | - | - |
| 1777397124 | 12.22° C | 54% | - | 0 mm | - | - | - |
* Rain latest hour (hover to see other rain measurements)
** Current wind speed in m/s (hover to see current wind gust speed)